Weather in Koma

Russia / Republic of Buryatia     52°09′53″N   107°30′05″E
temp.,
°C
wind,
m/s
gust,
m/s
humid.,
%
clouds,
%
prec.,
mm/h
press.,
hPa
HPBL,
m
15 august, mon
mon1523:00+13n116493 0.0 100611
02:00+12n11675 0.0 100610
05:00+11nw117597 0.1 100710
08:00+16sw115952 0.1 1007188
11:00+21wsw234564 0.0 10061043
14:00+24wsw333742 0.0 10042114
17:00+24wsw123734 0.0 10031598
20:00+17s01645 0.1 100312
16 august, tue
tue1623:00+13e11856 0.3 100211
02:00+12w2297100 2.8 100461
05:00+11w1298100 0.0 1006118
08:00+13ssw119381 0.1 1006308
11:00+16ssw1178100 0.1 1004600
14:00+11ne1295100 11.0 1007241
17:00+13nnw128129 0.6 1005462
20:00+10sw119117 0.6 100512
17 august, wed
wed1723:00+7wnw11930 0.0 100812
02:00+7w11964 0.0 100912
05:00+6w219719 0.0 101022
08:00+11w138137 0.0 1010497
11:00+15wnw564413 0.0 10091604
14:00+17wnw46396 0.0 10081948
17:00+17nw34341 0.0 10071899
20:00+10n22610 0.0 100821
18 august, thu
thu1823:00+7n2271100 0.0 101021
02:00+7nne2270100 0.0 101020
05:00+6nne227771 0.0 101016
08:00+10e116375 0.0 1009165
11:00+17ssw113965 0.0 10081439
14:00+19wsw133763 0.0 10061986
17:00+18nw114099 0.0 10051613
20:00+12nne2361100 0.0 100562
19 august, fri
fri1923:00+10nne1263100 0.1 100542
02:00+8wsw2598100 1.4 1006294
05:00+8wnw2396100 0.6 1008241
08:00+8w238750 0.8 1010519
11:00+11w3464100 0.2 10101038
14:00+17w23348 0.2 10081909
17:00+16sw1133100 0.0 10071571
20:00+10nne2258100 0.0 100818